Location: ????????
(54.9045°N, 39.1041°E)
Time: 13:46:04
(UTC+00:00)

Cosmos 1633 Rocket - Pass Details

Date: 14 April 2024
Orbit: 605 x 619 km, 82.5° (Epoch: 26 May)

Event Time Altitude Azimuth Distance (km) Brightness Sun altitude
Rises 00:30:07 0° 351° (N) 2,877 7.0 -14.7°
Reaches altitude 10° 00:32:24 10° 356° (N) 1,969 6.2 -14.5°
Maximum altitude 00:36:39 50° 73° (ENE) 779 4.0 -14.0°
Drops below altitude 10° 00:40:52 10° 149° (SSE) 1,959 5.5 -13.6°
Sets 00:43:08 0° 155° (SSE) 2,861 6.3 -13.3°
